36.52977, -87.35945

Hourly Observations for February 13, 2018

Temp ( °F °C ) Dew Point ( °F °C ) Humidity (%) Winds ( mph kmh ) Pressure ( in mb ) Visibility ( mi km ) Precip ( " mm )
12:52 am 00:52 Cloudy 68 20 64 17.8 87 87 Calm 30.03 1017 10 16.09344 0.001 0.001
1:52 am 01:52 Mostly Cloudy 67 19.4 64 17.8 91 91 S 5 7 30.03 1017 10 16.09344 0 0
2:52 am 02:52 Clear 68 20 63 17.2 84 84 S 6 9 30.03 1017 10 16.09344 0 0
3:52 am 03:52 Clear 68 20 63 17.2 84 84 S 7 11 30.03 1017 10 16.09344 0 0
4:52 am 04:52 Clear 67 19.4 63 17.2 87 87 Calm 30.03 1017 10 16.09344 0 0
5:52 am 05:52 Sunny 68 20 62 16.7 81 81 NW 7 11 30.09 1019 10 16.09344 0 0
6:39 am 06:39 Cloudy 68 20 63 17.2 84 84 Calm 30.09 1019 10 16.09344 0 0
6:52 am 06:52 Cloudy 69 20.6 64 17.8 84 84 Calm 30.09 1019 9 14.484096 0 0
7:52 am 07:52 Cloudy 71 21.7 64 17.8 79 79 NE 3 6 30.09 1019 10 16.09344 0 0
8:52 am 08:52 Cloudy 73 22.8 66 18.9 79 79 E 6 9 30.09 1019 10 16.09344 0.001 0.001
9:15 am 09:15 Partly Cloudy with Light Rain 75 23.9 65 18.3 71 71 E 6 9 30.09 1019 10 16.09344 0.001 0.001
9:52 am 09:52 Mostly Sunny 76 24.4 65 18.3 69 69 ESE 6 9 30.09 1019 10 16.09344 0.001 0.001
10:15 am 10:15 Mostly Cloudy 77 25 66 18.9 69 69 SE 8 13 30.09 1019 10 16.09344 0 0
10:52 am 10:52 Partly Cloudy 77 25 65 18.3 66 66 ESE 9 15 30.09 1019 10 16.09344 0 0
11:25 am 11:25 Mostly Cloudy 77 25 66 18.9 69 69 SE 9 15 30.09 1019 10 16.09344 0 0
11:52 am 11:52 Mostly Cloudy 78 25.6 66 18.9 67 67 SE 9 15 30.09 1019 10 16.09344 0 0
12:52 pm 12:52 Cloudy 79 26.1 67 19.4 67 67 SSE 9 15 30.06 1018 10 16.09344 0 0
1:23 pm 13:23 Partly Cloudy 80 26.7 67 19.4 64 64 SSE 9 15 30.06 1018 10 16.09344 0 0
1:52 pm 13:52 Mostly Cloudy 81 27.2 67 19.4 62 62 S 7 11 30.03 1017 10 16.09344 0 0
2:52 pm 14:52 Mostly Sunny 82 27.8 66 18.9 58 58 S 6 9 30 1016 10 16.09344 0 0
3:52 pm 15:52 Mostly Sunny 82 27.8 66 18.9 58 58 N 6 9 30 1016 10 16.09344 0 0
4:07 pm 16:07 Partly Cloudy with Nearby Thunderstorms 83 28.3 66 18.9 57 57 SSW 6 9 29.97 1015 10 16.09344 0 0
4:22 pm 16:22 Mostly Cloudy 83 28.3 66 18.9 57 57 W 3 6 29.97 1015 10 16.09344 0 0
4:52 pm 16:52 Mostly Sunny 81 27.2 68 20 65 65 WNW 10 17 29.97 1015 10 16.09344 0 0
5:05 pm 17:05 Sunny with Nearby Thunderstorms 81 27.2 68 20 65 65 WNW 9 15 29.97 1015 10 16.09344 0 0
5:38 pm 17:38 Partly Cloudy with Thunderstorms 79 26.1 69 20.6 72 72 NW 7 11 29.97 1015 10 16.09344 0 0
5:52 pm 17:52 Partly Cloudy with Nearby Thunderstorms 80 26.7 68 20 67 67 N 5 7 29.97 1015 10 16.09344 0 0
6:42 pm 18:42 Mostly Cloudy 77 25 68 20 74 74 ESE 9 15 30 1016 10 16.09344 0 0
6:52 pm 18:52 Cloudy 76 24.4 65 18.3 69 69 SSE 8 13 30 1016 10 16.09344 0 0
7:12 pm 19:12 Mostly Cloudy with Thunderstorms 75 23.9 66 18.9 74 74 S 7 11 30 1016 10 16.09344 0 0
7:27 pm 19:27 Mostly Cloudy 74 23.3 65 18.3 74 74 N 3 6 30 1016 10 16.09344 0 0
7:52 pm 19:52 Partly Cloudy 71 21.7 67 19.4 87 87 E 3 6 30 1016 10 16.09344 0.01 0.254
8:52 pm 20:52 Mostly Clear 70 21.1 66 18.9 87 87 S 5 7 30 1016 10 16.09344 0 0
9:52 pm 21:52 Mostly Cloudy with Light Rain 71 21.7 67 19.4 87 87 SSW 7 11 30.03 1017 10 16.09344 0.001 0.001
10:52 pm 22:52 Clear 71 21.7 67 19.4 87 87 N 3 6 30.03 1017 10 16.09344 0.001 0.001
11:52 pm 23:52 Clear 70 21.1 66 18.9 87 87 SE 3 6 30 1016 10 16.09344 0 0